When you browse on this site, cookies collect data to enhance your experience and personalize the content and advertising you see.
Visit our Privacy Policy to learn more. By continuing to use the site, you agree to this use of cookies and data.
  • In Schweiz
  • Länderverzeichnis
  • Für 7 Tage
  • Wassertemperatur
  • Satellitenkarten
  • Wetterkarte
  • Widgets
  • user-avatar
    Anmelden

    Stündliche Wetter Saurimo

    Heute, 21 Mai, Dienstag

    Zeit Temperatur Niederschläge Wind Luftdruck Luftfeuchtigkeit
    00:00 +22°C° 0 mm 1 m/S 670 mmHg 67%
    01:00 +21°C° 0 mm 1 m/S 670 mmHg 70%
    02:00 +19°C° 0 mm 0 m/S 670 mmHg 72%
    03:00 +19°C° 0 mm 0 m/S 670 mmHg 74%
    04:00 +18°C° 0 mm 0 m/S 670 mmHg 75%
    05:00 +19°C° 0 mm 0 m/S 670 mmHg 73%
    06:00 +22°C° 0 mm 1 m/S 671 mmHg 70%
    07:00 +23°C° 0 mm 1 m/S 672 mmHg 65%
    08:00 +26°C° 0 mm 1 m/S 672 mmHg 56%
    09:00 +28°C° 0 mm 2 m/S 672 mmHg 47%
    10:00 +31°C° 0 mm 2 m/S 673 mmHg 38%
    11:00 +32°C° 0 mm 2 m/S 673 mmHg 34%
    12:00 +34°C° 0 mm 2 m/S 672 mmHg 30%
    13:00 +34°C° 0 mm 2 m/S 672 mmHg 28%
    14:00 +34°C° 0 mm 2 m/S 671 mmHg 29%
    15:00 +32°C° 0 mm 1 m/S 671 mmHg 30%
    16:00 +32°C° 0 mm 1 m/S 671 mmHg 31%
    17:00 +30°C° 0 mm 1 m/S 671 mmHg 35%
    18:00 +28°C° 0 mm 1 m/S 671 mmHg 40%
    19:00 +27°C° 0 mm 1 m/S 670 mmHg 45%
    20:00 +26°C° 0 mm 1 m/S 671 mmHg 46%
    21:00 +26°C° 0 mm 1 m/S 671 mmHg 48%
    22:00 +26°C° 0 mm 1 m/S 671 mmHg 50%
    23:00 +25°C° 0 mm 1 m/S 671 mmHg 51%

    Morgen, 22 Mai, Mittwoch

    Zeit Temperatur Niederschläge Wind Luftdruck Luftfeuchtigkeit
    00:00 +25°C° 0 mm 1 m/S 671 mmHg 52%
    01:00 +25°C° 0 mm 1 m/S 671 mmHg 53%
    02:00 +25°C° 0 mm 1 m/S 671 mmHg 53%
    03:00 +24°C° 0 mm 1 m/S 671 mmHg 53%
    04:00 +24°C° 0 mm 1 m/S 671 mmHg 53%
    05:00 +24°C° 0 mm 1 m/S 671 mmHg 54%
    06:00 +24°C° 0 mm 2 m/S 671 mmHg 54%
    07:00 +23°C° 0 mm 2 m/S 671 mmHg 55%
    08:00 +26°C° 0 mm 2 m/S 672 mmHg 49%
    09:00 +29°C° 0 mm 3 m/S 673 mmHg 43%
    10:00 +31°C° 0 mm 3 m/S 673 mmHg 37%
    11:00 +33°C° 0 mm 3 m/S 673 mmHg 36%
    12:00 +34°C° 0 mm 3 m/S 672 mmHg 34%
    13:00 +35°C° 0 mm 3 m/S 672 mmHg 33%
    14:00 +34°C° 0 mm 3 m/S 672 mmHg 34%
    15:00 +32°C° 0 mm 2 m/S 671 mmHg 36%
    16:00 +31°C° 0 mm 2 m/S 671 mmHg 38%
    17:00 +30°C° 0 mm 2 m/S 671 mmHg 43%
    18:00 +28°C° 0 mm 2 m/S 671 mmHg 49%
    19:00 +26°C° 0 mm 1 m/S 671 mmHg 54%
    20:00 +25°C° 0 mm 1 m/S 671 mmHg 55%
    21:00 +25°C° 0 mm 1 m/S 671 mmHg 57%
    22:00 +25°C° 0 mm 1 m/S 671 mmHg 58%
    23:00 +24°C° 0 mm 1 m/S 671 mmHg 60%

    übermorgen, 23 Mai, Donnerstag

    Zeit Temperatur Niederschläge Wind Luftdruck Luftfeuchtigkeit
    00:00 +23°C° 0 mm 1 m/S 671 mmHg 61%
    01:00 +22°C° 0 mm 1 m/S 670 mmHg 63%
    02:00 +21°C° 0 mm 2 m/S 670 mmHg 64%
    03:00 +21°C° 0 mm 2 m/S 670 mmHg 65%
    04:00 +20°C° 0 mm 2 m/S 670 mmHg 65%
    05:00 +21°C° 0 mm 2 m/S 670 mmHg 64%
    06:00 +23°C° 0 mm 2 m/S 671 mmHg 63%
    07:00 +23°C° 0 mm 2 m/S 671 mmHg 62%
    08:00 +26°C° 0 mm 3 m/S 672 mmHg 54%
    09:00 +29°C° 0 mm 3 m/S 673 mmHg 47%
    10:00 +32°C° 0 mm 4 m/S 673 mmHg 39%
    11:00 +33°C° 0 mm 3 m/S 673 mmHg 36%
    12:00 +34°C° 0 mm 3 m/S 672 mmHg 33%
    13:00 +35°C° 0 mm 3 m/S 671 mmHg 31%
    14:00 +34°C° 0 mm 2 m/S 671 mmHg 32%
    15:00 +32°C° 0 mm 2 m/S 670 mmHg 33%
    16:00 +32°C° 0 mm 2 m/S 670 mmHg 35%
    17:00 +31°C° 0 mm 1 m/S 670 mmHg 38%
    18:00 +29°C° 0 mm 1 m/S 671 mmHg 40%
    19:00 +28°C° 0 mm 1 m/S 671 mmHg 43%
    20:00 +27°C° 0 mm 1 m/S 671 mmHg 44%
    21:00 +27°C° 0 mm 1 m/S 672 mmHg 45%
    22:00 +27°C° 0 mm 1 m/S 672 mmHg 46%
    23:00 +25°C° 0 mm 1 m/S 671 mmHg 49%

    24 Mai, Freitag

    Zeit Temperatur Niederschläge Wind Luftdruck Luftfeuchtigkeit
    00:00 +24°C° 0 mm 1 m/S 671 mmHg 52%
    01:00 +23°C° 0 mm 1 m/S 670 mmHg 55%
    02:00 +23°C° 0 mm 1 m/S 670 mmHg 58%
    03:00 +22°C° 0 mm 1 m/S 670 mmHg 60%
    04:00 +21°C° 0 mm 1 m/S 670 mmHg 62%
    05:00 +21°C° 0 mm 2 m/S 670 mmHg 61%
    06:00 +21°C° 0 mm 2 m/S 671 mmHg 59%
    07:00 +23°C° 0 mm 2 m/S 672 mmHg 58%
    08:00 +26°C° 0 mm 3 m/S 672 mmHg 50%
    09:00 +29°C° 0 mm 3 m/S 673 mmHg 43%
    10:00 +31°C° 0 mm 3 m/S 674 mmHg 35%
    11:00 +33°C° 0 mm 3 m/S 673 mmHg 33%
    12:00 +34°C° 0 mm 3 m/S 672 mmHg 30%
    13:00 +35°C° 0 mm 3 m/S 672 mmHg 28%
    14:00 +35°C° 0 mm 3 m/S 671 mmHg 28%
    15:00 +34°C° 0 mm 3 m/S 671 mmHg 29%
    16:00 +34°C° 0 mm 3 m/S 670 mmHg 29%
    17:00 +30°C° 0 mm 2 m/S 671 mmHg 34%
    18:00 +28°C° 0 mm 2 m/S 671 mmHg 39%
    19:00 +26°C° 0 mm 1 m/S 671 mmHg 44%
    20:00 +25°C° 0 mm 1 m/S 671 mmHg 46%
    21:00 +24°C° 0 mm 1 m/S 671 mmHg 47%
    22:00 +23°C° 0 mm 1 m/S 672 mmHg 49%
    23:00 +23°C° 0 mm 2 m/S 671 mmHg 49%

    25 Mai, Samstag

    Zeit Temperatur Niederschläge Wind Luftdruck Luftfeuchtigkeit
    00:00 +21°C° 0 mm 2 m/S 671 mmHg 49%
    01:00 +21°C° 0 mm 2 m/S 671 mmHg 48%
    02:00 +20°C° 0 mm 2 m/S 670 mmHg 48%
    03:00 +20°C° 0 mm 2 m/S 670 mmHg 49%
    04:00 +19°C° 0 mm 2 m/S 670 mmHg 49%
    05:00 +19°C° 0 mm 2 m/S 671 mmHg 48%
    06:00 +20°C° 0 mm 3 m/S 672 mmHg 47%
    07:00 +20°C° 0 mm 3 m/S 672 mmHg 47%
    08:00 +23°C° 0 mm 4 m/S 673 mmHg 40%
    09:00 +27°C° 0 mm 4 m/S 673 mmHg 33%
    10:00 +30°C° 0 mm 4 m/S 674 mmHg 26%
    11:00 +32°C° 0 mm 4 m/S 673 mmHg 25%
    12:00 +33°C° 0 mm 4 m/S 673 mmHg 23%
    13:00 +34°C° 0 mm 4 m/S 672 mmHg 21%
    14:00 +34°C° 0 mm 4 m/S 671 mmHg 22%
    15:00 +33°C° 0 mm 3 m/S 671 mmHg 23%
    16:00 +33°C° 0 mm 3 m/S 671 mmHg 24%
    17:00 +29°C° 0 mm 3 m/S 671 mmHg 29%
    18:00 +27°C° 0 mm 2 m/S 671 mmHg 35%
    19:00 +24°C° 0 mm 1 m/S 671 mmHg 40%
    20:00 +23°C° 0 mm 1 m/S 671 mmHg 42%
    21:00 +22°C° 0 mm 1 m/S 671 mmHg 44%
    22:00 +21°C° 0 mm 2 m/S 671 mmHg 46%
    23:00 +20°C° 0 mm 2 m/S 671 mmHg 47%

    26 Mai, Sonntag

    Zeit Temperatur Niederschläge Wind Luftdruck Luftfeuchtigkeit
    00:00 +19°C° 0 mm 2 m/S 670 mmHg 48%
    01:00 +19°C° 0 mm 2 m/S 670 mmHg 49%
    02:00 +18°C° 0 mm 2 m/S 670 mmHg 48%
    03:00 +18°C° 0 mm 2 m/S 670 mmHg 48%
    04:00 +18°C° 0 mm 2 m/S 670 mmHg 48%
    05:00 +18°C° 0 mm 3 m/S 670 mmHg 47%
    06:00 +19°C° 0 mm 3 m/S 671 mmHg 47%
    07:00 +20°C° 0 mm 3 m/S 672 mmHg 46%
    08:00 +22°C° 0 mm 3 m/S 672 mmHg 42%
    09:00 +26°C° 0 mm 3 m/S 673 mmHg 38%
    10:00 +29°C° 0 mm 3 m/S 673 mmHg 34%
    11:00 +30°C° 0 mm 3 m/S 673 mmHg 31%
    12:00 +33°C° 0 mm 3 m/S 672 mmHg 29%
    13:00 +34°C° 0 mm 3 m/S 671 mmHg 26%
    14:00 +32°C° 0 mm 2 m/S 671 mmHg 27%
    15:00 +32°C° 0 mm 2 m/S 670 mmHg 28%
    16:00 +32°C° 0 mm 2 m/S 670 mmHg 28%
    17:00 +29°C° 0 mm 2 m/S 670 mmHg 33%
    18:00 +27°C° 0 mm 2 m/S 671 mmHg 38%
    19:00 +25°C° 0 mm 1 m/S 671 mmHg 42%
    20:00 +24°C° 0 mm 2 m/S 671 mmHg 44%
    21:00 +24°C° 0 mm 2 m/S 671 mmHg 45%
    22:00 +23°C° 0 mm 2 m/S 671 mmHg 47%
    23:00 +23°C° 0 mm 2 m/S 671 mmHg 48%
    Mehr zeigen